CZ-2C R/B, 62078

Orbit data source: Space-Track

CZ-2C R/B, 62078 is space debris in SSO originally from a launch on Sun, 24 Nov 2024 UTC via a CHANG ZHENG 2C launch vehicle from the Jiuquan Satellite Launch Center, China (JSC). Debris objects in space refer to the collection of defunct objects orbiting the Earth. Examples of debris include non-operational satellites, rocket bodies, and fragments generated from explosions, collisions, or faulty payload assembly.

Loading next visibility...
CZ-2C R/B details
Identifier
62078, 2024-218A
Orbit
SSO
Last TLE update12 hours ago
Origin
Flag of CNCASC (CN / PRC)
ManufacturerCALT
MissionSpacecraft
Bus & MotorCZ-2 STAGE 2, Unknown motor
Mass~3,800 kg wet, ~3,800 kg dry
Launch date (UTC)
2024-11-24 (3 weeks ago)
Launch vehicle
CHANG ZHENG 2C
Launch site
Jiuquan Satellite Launch Center, China (JSC)
Object type
Payload
Rocket body
Debris
Shape & HBRUnknown
Radar Cross SectionLarge (>1 m²)

Expand to show TLE details & history

TLE from 12 hours ago
0 CZ-2C R/B
1 62078U 24218A   24348.46091760  .00006570  00000-0  34339-3 0  9997
2 62078  97.5493 352.9872 0055267 126.7337 233.8989 15.14874979  2809
Epoch: 2024-12-13T11:03Z
Definitive object data (Epoch: 2024-12-13T11:03:43.28Z)
Latitude-0.00002°
Longitude104.4303°
Altitude547.047 km
Speed7.576 km/s
True Right ascension23h 31m 56s
True Declination0° 00' 00"
Sunlit
Object was in daylight at TLE epoch
Visualization TLE readout
Latitude3.63503°
Longitude-74.59906°
Altitude499.998 km
Speed7.628 km/s
Apparent Right ascension10h 42m 47s
Apparent Declination-17° 48' 49"
Sunlit
Object is in daylight
Visualization observer readout
Local Sidereal Time21:27:47
Azimuth318.332° NNW
Elevation-62.594°
Doppler factor1
Orbital elements
Apogee altitude556.452 km
Perigee altitude480.222 km
Semi-major axis6,896.474 km
Eccentricity0.0055267
Inclination97.5493°
RAAN352.9872°
Arg. of periapsis126.7337°
True anomaly233.38928°
Mean anomaly233.8989°
Eccentric anomaly233.64388°
Mean motion3.78968 °/min
BSTAR0.00034339
Orbital period94.99 mins
Loading maneuver chart data...
Loading historical data...
Loading historical data...
Loading historical data...
Loading historical data...
Loading historical data...
Loading historical data...
Loading historical data...
Other satellites on launch #218 in the year 2024 (2024-11-24 UTC)

CZ-2C R/B Visibility forecast

Observer location: undefined°, undefined

Span
Click to sort rows by Start time (UTC) header in descending order
Start Az.
Max El. time (UTC)
Max El. Az.
Max El.
End time (UTC)
End Az.
6 mins2024-12-13 23:52:48.582Z127.979° SE2024-12-13 23:55:48.582Z72.853° E24.127°2024-12-13 23:58:48.582Z14.781° NNE
5 mins2024-12-14 13:00:48.582Z44.045° NE2024-12-14 13:02:48.582Z112.338° ESE31.88°2024-12-14 13:05:48.582Z169.14° S
|